User: anonymous   Login
Location: Unspecified
(0.0000°N, 0.0000°E)
Time: 21:47:43
(UTC+01:00)
Language:

ARIANE 5 R/B - Orbit

View from above orbital plane
View from above orbital plane
View from above satellite
View from above satellite

Ground track
Ground track

The orbit data is extracted from the following two-line orbital elements,

1 28886U 05041C   15057.11556204 -.00000170  00000-0  80928-3 0  9993
2 28886 008.1338 322.8473 7191178 191.5440 354.3489 02.24316641 76822
Epoch (UTC): 26 February 2015 02:46:24
Eccentricity: 0.7191178
inclination: 8.1338°
perigee height: 546 km
apogee height: 35999 km
right ascension of ascending node: 322.8473°
argument of perigee: 191.5440°
revolutions per day: 2.24316641
mean anomaly at epoch: 354.3489°
orbit number at epoch: 7682

The dashed part of the orbit path shows where the satellite is in the earth's shadow,  

DLR